Flag for Lebanon Weather past 2 weeks in Sidon, Lebanon

73 °F

Scattered clouds.

Feels Like: 76 °F
Forecast: 66 / 74 °F
Wind: 2 mph from North

Location: Beirut Airport

Current Time: Nov 29, 2015 at 12:55:41 PM

Latest Report: Nov 29, 2015 at 12:00 PM

Visibility: 5 mi

Pressure: 30.09 "Hg

Humidity: 61%

Dew point: 59 °F

Location of SidonLocation

Historic Weather in Sidon — Graph


Sidon temperature yesterday

Maximum temperature yesterday: 73 °F (at 10:00 AM)
Minimum temperature yesterday: 64 °F (at 5:00 AM)
Average temperature yesterday: 69 °F

Past Weeks' High & Low Weather Summary

High81 °F (Nov 22, 5:00 PM)83% (Nov 18, 3:00 AM)30.21 "Hg (Nov 18, 3:00 AM)
Low61 °F (Nov 20, 7:00 AM)25% (Nov 22, 12:00 AM)29.77 "Hg (Nov 16, 5:00 AM)
Average69 °F54%30.05 "Hg
* Reported Nov 14 11:00 AM — Nov 29 11:00 AM, Sidon, Weather by CustomWeather, © 2015

Note: Actual official high and low records may vary slightly from our data, if they occured in-between our weather recording intervals... More about our weather records


Sidon weather history for previous 24 hours

Time TempWeatherWind HumidityBarometerVisibility
11:00 AM
Sun, Nov 29
72 °FScattered clouds.10 mph65%30.12 "Hg5 mi
10:00 AM72 °FScattered clouds.5 mph65%30.12 "Hg5 mi
9:00 AM68 °FScattered clouds.8 mph64%30.12 "Hg5 mi
8:00 AM70 °FPartly sunny.8 mph60%30.12 "Hg5 mi
7:00 AM66 °FScattered clouds.6 mph64%30.09 "Hg5 mi
6:00 AM64 °FPassing clouds.3 mph64%30.09 "Hg5 mi
5:00 AM64 °FPassing clouds.5 mph64%30.09 "Hg4 mi
4:00 AM64 °FPassing clouds.5 mph60%30.09 "Hg5 mi
3:00 AM64 °FPassing clouds.6 mph56%30.09 "Hg4 mi
2:00 AM64 °FPassing clouds.2 mph64%30.09 "Hg4 mi
1:00 AM66 °FPassing clouds.6 mph52%30.09 "Hg4 mi
12:00 AM64 °FPassing clouds.6 mph49%30.09 "Hg4 mi
11:00 PM
Sat, Nov 28
66 °FPassing clouds.5 mph52%30.09 "Hg4 mi
10:00 PM64 °FPassing clouds.8 mph56%30.09 "Hg4 mi
9:00 PM66 °FPassing clouds.3 mph64%30.09 "Hg4 mi
8:00 PM68 °FPassing clouds.2 mph60%30.12 "Hg5 mi
7:00 PM68 °FPassing clouds.2 mph60%30.12 "Hg5 mi
6:00 PM70 °FPassing clouds.5 mph60%30.09 "Hg5 mi
5:00 PM70 °FPassing clouds.5 mph64%30.09 "Hg5 mi
4:00 PM72 °FPartly sunny.6 mph65%30.12 "Hg5 mi
3:00 PM73 °FScattered clouds.5 mph57%30.12 "Hg5 mi
2:00 PM73 °FPartly sunny.5 mph47%30.12 "Hg4 mi
1:00 PM73 °FPartly sunny.6 mph53%30.12 "Hg4 mi
12:00 PM73 °FPartly sunny.6 mph53%30.12 "Hg4 mi
Weather by CustomWeather, © 2015

See weather overviewHow to use our weather pages